Location: Bothell
(47.7630°N, 122.2040°W)
Time: 11:25:02
(UTC-07:00)

Amateur Radio Satellites - All Passes

Search period start: 28 July 2014 10:55
Search period end: 29 July 2014 10:55
Location: Bothell, 47.7630°N, 122.2040°W

Satellite Date Start Highest point End Downlink Frequencies (MHz)
Time Altitude Azimuth
PCSat 28 Jul 10:56:51 11:01:59 44° 245° (WSW) 11:07:05 145.825 MHz
UKube-1 28 Jul 11:10:47 11:15:01 51° 290° (WNW) 11:19:14 145.840 MHz, 145.915 MHz
Saudisat 1A 28 Jul 11:32:36 11:34:16 12° 342° (NNW) 11:35:56 436.775 MHz
HO-68 28 Jul 11:48:42 11:55:11 39° 300° (WNW) 12:01:40 435.675 MHz FM
KITSAT 1 28 Jul 11:49:21 11:55:13 21° 3° (N) 12:01:05 435.175 FM
Oscar 11 28 Jul 11:56:59 12:00:51 32° 293° (WNW) 12:04:42 145.825 FM, Beacon 2401.500 USB
Sapphire 28 Jul 12:08:31 12:11:08 14° 257° (WSW) 12:13:44 437.095 MHz 1200 baud AX-25 AFSK
Oscar 16 28 Jul 12:13:25 12:16:35 17° 56° (ENE) 12:19:45 437.025 USB, Beacon 2401.1428
FUNcube-1 28 Jul 12:16:24 12:20:25 48° 289° (WNW) 12:24:27 145.950 - 145.970 MHz USB
ITAMSAT 1 28 Jul 12:34:12 12:36:25 13° 53° (NE) 12:38:38 435.822 SSB
SO-50 28 Jul 12:44:00 12:47:46 27° 116° (ESE) 12:51:37 436.795 FM
RS-15 28 Jul 12:46:11 12:54:54 28° 103° (ESE) 13:03:27 29.354 - 29.394 USB, Beacon 29.352 USB
JAS-1B 28 Jul 12:47:26 12:54:31 25° 47° (NE) 13:01:53 435.800 - 435.900 CW/SSB
AO-27 28 Jul 12:51:48 12:55:13 18° 57° (ENE) 12:58:37 436.795 MHz FM
Uribyol 2 28 Jul 12:52:15 12:55:44 19° 57° (ENE) 12:59:13 436.500 FM
Gurwin Techsat 1B 28 Jul 13:12:34 13:14:37 12° 52° (NE) 13:16:40 435.225 FM
Oscar 19 28 Jul 13:22:02 13:27:00 55° 70° (ENE) 13:32:01 437.125 CW, 437.150 USB
HO-68 28 Jul 13:40:11 13:40:59 10° 323° (NW) 13:41:46 435.675 MHz FM
AO-Echo 28 Jul 13:42:44 13:47:44 44° 68° (ENE) 13:52:45 ?
KITSAT 1 28 Jul 13:46:11 13:53:26 34° 32° (NNE) 14:00:37 435.175 FM
Oscar 16 28 Jul 13:50:10 13:55:17 84° 256° (WSW) 14:00:27 437.025 USB, Beacon 2401.1428
AO-7 28 Jul 13:53:17 13:58:12 17° 39° (NE) 14:03:07 29.400 - 29.500 MHz
ITAMSAT 1 28 Jul 14:09:50 14:15:01 71° 72° (ENE) 14:20:13 435.822 SSB
SO-50 28 Jul 14:23:47 14:28:08 47° 315° (NW) 14:32:35 436.795 FM
TMSAT-1 28 Jul 14:25:01 14:29:42 33° 64° (ENE) 14:34:25 436.925 FM
AO-27 28 Jul 14:28:53 14:34:07 80° 256° (WSW) 14:39:22 436.795 MHz FM
Uribyol 2 28 Jul 14:29:26 14:34:39 77° 256° (WSW) 14:39:52 436.500 FM
JAS-1B 28 Jul 14:34:23 14:43:24 75° 69° (ENE) 14:53:18 435.800 - 435.900 CW/SSB
UOSAT-12 28 Jul 14:47:25 14:51:35 34° 118° (ESE) 14:55:50 437.025 FM, 437.400 FM
Gurwin Techsat 1B 28 Jul 14:48:21 14:53:37 67° 72° (ENE) 14:58:54 435.225 FM
Saudisat 1A 28 Jul 14:54:02 14:57:16 19° 31° (NNE) 15:00:29 436.775 MHz
RS-15 28 Jul 14:54:44 15:05:51 89° 307° (NW) 15:16:51 29.354 - 29.394 USB, Beacon 29.352 USB
Oscar 19 28 Jul 15:02:46 15:06:42 22° 268° (W) 15:10:39 437.125 CW, 437.150 USB
AO-Echo 28 Jul 15:21:59 15:26:38 30° 266° (W) 15:31:18 ?
Oscar 16 28 Jul 15:33:36 15:35:27 12° 274° (W) 15:37:19 437.025 USB, Beacon 2401.1428
Uosat F 28 Jul 15:39:46 15:44:22 37° 66° (ENE) 15:48:59 435.120 FM
AO-7 28 Jul 15:41:11 15:49:16 56° 62° (ENE) 15:57:23 29.400 - 29.500 MHz
KITSAT 1 28 Jul 15:41:40 15:49:48 87° 236° (WSW) 15:57:53 435.175 FM
ITAMSAT 1 28 Jul 15:51:36 15:55:03 18° 270° (W) 15:58:31 435.822 SSB
TMSAT-1 28 Jul 16:04:35 16:09:33 40° 263° (W) 16:14:32 436.925 FM
SO-50 28 Jul 16:07:18 16:09:50 15° 338° (NNW) 16:12:24 436.795 FM
AO-27 28 Jul 16:12:41 16:14:28 12° 274° (W) 16:16:16 436.795 MHz FM
Uribyol 2 28 Jul 16:13:40 16:15:00 11° 275° (W) 16:16:19 436.500 FM
OPAL 28 Jul 16:26:32 16:30:30 23° 95° (E) 16:34:28 ?
JAS-1B 28 Jul 16:26:45 16:34:40 33° 272° (W) 16:43:18 435.800 - 435.900 CW/SSB
UOSAT-12 28 Jul 16:27:17 16:31:41 41° 317° (NW) 16:36:10 437.025 FM, 437.400 FM
Gurwin Techsat 1B 28 Jul 16:30:20 16:34:05 19° 270° (W) 16:37:51 435.225 FM
Saudisat 1A 28 Jul 16:33:03 16:37:30 86° 52° (NE) 16:41:55 436.775 MHz
Hamsat 28 Jul 16:47:00 16:48:44 12° 58° (ENE) 16:50:27 145.90 MHz
JAS-2 28 Jul 16:57:10 17:03:19 27° 58° (ENE) 17:09:05 435.800 - 435.900 CW/SSB, 435.910 FM
RS-15 28 Jul 17:09:34 17:19:43 40° 336° (NNW) 17:29:53 29.354 - 29.394 USB, Beacon 29.352 USB
Uosat F 28 Jul 17:18:40 17:23:11 33° 264° (W) 17:27:44 435.120 FM
AO-7 28 Jul 17:34:38 17:42:20 40° 262° (W) 17:50:06 29.400 - 29.500 MHz
KITSAT 1 28 Jul 17:38:24 17:44:06 22° 257° (WSW) 17:49:48 435.175 FM
OPAL 28 Jul 18:04:45 18:09:42 55° 293° (WNW) 18:14:40 ?
UOSAT-12 28 Jul 18:10:38 18:13:06 14° 340° (NNW) 18:15:35 437.025 FM, 437.400 FM
Saudisat 1A 28 Jul 18:14:20 18:16:27 13° 250° (WSW) 18:18:33 436.775 MHz
Hamsat 28 Jul 18:19:53 18:24:04 83° 257° (WSW) 18:28:19 145.90 MHz
JAS-2 28 Jul 18:39:56 18:47:45 79° 256° (WSW) 18:55:01 435.800 - 435.900 CW/SSB, 435.910 FM
STRAND 1 28 Jul 18:49:29 18:52:46 17° 89° (E) 18:56:02 ?
HO-68 28 Jul 18:49:48 18:53:15 14° 43° (NE) 18:56:42 435.675 MHz FM
SO-67 28 Jul 19:01:01 19:04:18 41° 72° (ENE) 19:07:37 435.3500 MHz FM
RS-15 28 Jul 19:26:06 19:35:44 33° 10° (N) 19:45:30 29.354 - 29.394 USB, Beacon 29.352 USB
SO-50 28 Jul 19:31:40 19:34:56 18° 28° (NNE) 19:38:13 436.795 FM
OPAL 28 Jul 19:47:02 19:47:33 10° 312° (NW) 19:48:05 ?
UOSAT-12 28 Jul 19:54:33 19:55:20 10° 5° (N) 19:56:08 437.025 FM, 437.400 FM
STRAND 1 28 Jul 20:27:24 20:32:30 71° 288° (WNW) 20:37:34 ?
JAS-2 28 Jul 20:28:46 20:33:41 18° 274° (W) 20:38:26 435.800 - 435.900 CW/SSB, 435.910 FM
HO-68 28 Jul 20:32:32 20:39:27 54° 65° (ENE) 20:46:23 435.675 MHz FM
UKube-1 28 Jul 20:34:08 20:37:45 26° 64° (ENE) 20:41:22 145.840 MHz, 145.915 MHz
SO-67 28 Jul 20:35:39 20:37:36 14° 269° (W) 20:39:34 435.3500 MHz FM
SO-50 28 Jul 21:11:37 21:16:21 68° 49° (NE) 21:21:08 436.795 FM
MaSat-1 28 Jul 21:17:22 21:20:55 28° 106° (ESE) 21:24:56 437.345 MHz
Oscar 11 28 Jul 21:19:10 21:23:05 35° 68° (ENE) 21:27:00 145.825 FM, Beacon 2401.500 USB
UOSAT-12 28 Jul 21:33:51 21:37:21 20° 29° (NNE) 21:40:50 437.025 FM, 437.400 FM
RS-15 28 Jul 21:39:57 21:50:49 60° 41° (NE) 22:01:59 29.354 - 29.394 USB, Beacon 29.352 USB
FUNcube-1 28 Jul 21:40:41 21:44:05 23° 65° (ENE) 21:47:27 145.950 - 145.970 MHz USB
STRAND 1 28 Jul 22:08:44 22:10:48 13° 307° (NW) 22:12:52 ?
UKube-1 28 Jul 22:09:44 22:13:48 37° 262° (W) 22:17:54 145.840 MHz, 145.915 MHz
HO-68 28 Jul 22:20:58 22:27:25 35° 264° (W) 22:33:54 435.675 MHz FM
SO-50 28 Jul 22:53:04 22:56:29 20° 248° (WSW) 22:59:55 436.795 FM
MaSat-1 28 Jul 22:53:56 22:58:03 41° 309° (NW) 23:02:44 437.345 MHz
Oscar 11 28 Jul 22:55:44 22:59:20 26° 266° (W) 23:02:59 145.825 FM, Beacon 2401.500 USB
UOSAT-12 28 Jul 23:13:29 23:18:16 79° 51° (NE) 23:22:58 437.025 FM, 437.400 FM
FUNcube-1 28 Jul 23:16:16 23:20:19 39° 262° (W) 23:24:19 145.950 - 145.970 MHz USB
RS-15 28 Jul 23:52:39 00:03:05 51° 246° (WSW) 00:13:54 29.354 - 29.394 USB, Beacon 29.352 USB
PCSat 29 Jul 00:01:20 00:04:08 14° 103° (ESE) 00:06:56 145.825 MHz
Oscar 10/S400 29 Jul 00:32:24 01:01:32 54° 174° (S) 09:18:52 145.825 - 145.975 CW/USB, Beacon 145.810 USB
MaSat-1 29 Jul 00:35:19 00:36:51 11° 332° (NNW) 00:38:26 437.345 MHz
ISS 29 Jul 00:37:17 00:40:30 46° 148° (SSE) 00:43:44 145.800 FM
UOSAT-12 29 Jul 00:54:54 00:57:50 17° 250° (WSW) 01:00:45 437.025 FM, 437.400 FM
Sapphire 29 Jul 01:08:15 01:13:22 46° 115° (ESE) 01:18:32 437.095 MHz 1200 baud AX-25 AFSK
Oscar 19 29 Jul 01:31:29 01:34:25 15° 88° (E) 01:37:20 437.125 CW, 437.150 USB
PCSat 29 Jul 01:41:18 01:46:43 85° 122° (ESE) 01:52:11 145.825 MHz
Oscar 16 29 Jul 01:58:50 02:03:12 27° 94° (E) 02:07:33 437.025 USB, Beacon 2401.1428
OPAL 29 Jul 02:10:42 02:11:31 10° 48° (NE) 02:12:21 ?
RS-15 29 Jul 02:12:05 02:12:34 10° 269° (W) 02:13:02 29.354 - 29.394 USB, Beacon 29.352 USB
ISS 29 Jul 02:13:56 02:17:14 51° 347° (NNW) 02:20:32 145.800 FM
JAS-1B 29 Jul 02:18:31 02:25:23 22° 82° (E) 02:31:35 435.800 - 435.900 CW/SSB
ITAMSAT 1 29 Jul 02:20:14 02:23:55 19° 90° (E) 02:27:34 435.822 SSB
AO-27 29 Jul 02:38:56 02:43:24 28° 94° (E) 02:47:49 436.795 MHz FM
Uribyol 2 29 Jul 02:39:08 02:43:37 29° 95° (E) 02:48:05 436.500 FM
Sapphire 29 Jul 02:51:57 02:56:56 36° 316° (NW) 03:01:57 437.095 MHz 1200 baud AX-25 AFSK
Gurwin Techsat 1B 29 Jul 03:01:56 03:05:51 21° 91° (E) 03:09:45 435.225 FM
Oscar 19 29 Jul 03:09:12 03:14:24 81° 286° (WNW) 03:19:35 437.125 CW, 437.150 USB
AO-Echo 29 Jul 03:25:11 03:30:19 74° 103° (ESE) 03:35:15 ?
PCSat 29 Jul 03:26:32 03:30:50 23° 324° (NW) 03:35:10 145.825 MHz
Oscar 16 29 Jul 03:37:50 03:42:45 46° 292° (WNW) 03:47:40 437.025 USB, Beacon 2401.1428
AO-7 29 Jul 03:41:57 03:44:55 12° 82° (E) 03:47:52 29.400 - 29.500 MHz
OPAL 29 Jul 03:44:34 03:49:24 58° 68° (ENE) 03:54:17 ?
ISS 29 Jul 03:51:05 03:54:20 43° 7° (N) 03:57:34 145.800 FM
ITAMSAT 1 29 Jul 03:58:44 04:03:53 64° 289° (WNW) 04:08:59 435.822 SSB
JAS-1B 29 Jul 04:07:44 04:17:25 85° 105° (ESE) 04:25:43 435.800 - 435.900 CW/SSB
TMSAT-1 29 Jul 04:16:27 04:21:44 64° 102° (ESE) 04:26:58 436.925 FM
AO-27 29 Jul 04:18:10 04:23:05 44° 293° (WNW) 04:27:58 436.795 MHz FM
Uribyol 2 29 Jul 04:18:23 04:23:14 42° 293° (WNW) 04:28:04 436.500 FM
Sapphire 29 Jul 04:39:36 04:42:01 13° 340° (NNW) 04:44:27 437.095 MHz 1200 baud AX-25 AFSK
Gurwin Techsat 1B 29 Jul 04:41:00 04:46:16 63° 289° (WNW) 04:51:29 435.225 FM
Oscar 19 29 Jul 04:50:18 04:52:57 14° 305° (NW) 04:55:37 437.125 CW, 437.150 USB
AO-Echo 29 Jul 05:05:04 05:08:30 18° 302° (WNW) 05:11:51 ?
PCSat 29 Jul 05:15:32 05:16:23 10° 349° (N) 05:17:15 145.825 MHz
Uosat F 29 Jul 05:22:13 05:27:12 59° 102° (ESE) 05:32:08 435.120 FM
OPAL 29 Jul 05:25:04 05:28:41 20° 266° (W) 05:32:20 ?
ISS 29 Jul 05:27:52 05:31:14 77° 206° (SSW) 05:34:36 145.800 FM
AO-7 29 Jul 05:31:16 05:39:32 60° 103° (ESE) 05:47:41 29.400 - 29.500 MHz
MaSat-1 29 Jul 05:31:40 05:36:06 26° 44° (NE) 05:40:27 437.345 MHz
ITAMSAT 1 29 Jul 05:40:45 05:42:24 12° 309° (NW) 05:44:03 435.822 SSB
JAS-2 29 Jul 05:50:38 05:51:45 11° 80° (E) 05:52:50 435.800 - 435.900 CW/SSB, 435.910 FM
TMSAT-1 29 Jul 05:57:14 06:01:12 22° 301° (WNW) 06:05:10 436.925 FM
JAS-1B 29 Jul 05:58:53 06:06:49 31° 309° (NW) 06:14:01 435.800 - 435.900 CW/SSB
Hamsat 29 Jul 06:03:32 06:05:56 14° 89° (E) 06:08:19 145.90 MHz
STRAND 1 29 Jul 06:08:15 06:12:54 36° 65° (ENE) 06:17:33 ?
KITSAT 1 29 Jul 06:13:39 06:21:05 42° 112° (ESE) 06:28:32 435.175 FM
Gurwin Techsat 1B 29 Jul 06:23:31 06:25:13 12° 309° (NW) 06:26:55 435.225 FM
PCSat 29 Jul 07:00:33 07:02:30 12° 17° (NNE) 07:04:26 145.825 MHz
Uosat F 29 Jul 07:01:48 07:05:36 22° 300° (WNW) 07:09:22 435.120 FM
ISS 29 Jul 07:05:28 07:07:30 15° 224° (SW) 07:09:31 145.800 FM
MaSat-1 29 Jul 07:08:38 07:13:57 68° 244° (WSW) 07:19:01 437.345 MHz
AO-7 29 Jul 07:24:30 07:32:00 39° 305° (NW) 07:39:28 29.400 - 29.500 MHz
JAS-2 29 Jul 07:32:08 07:38:16 72° 102° (ESE) 07:43:42 435.800 - 435.900 CW/SSB, 435.910 FM
Hamsat 29 Jul 07:38:03 07:42:19 64° 287° (WNW) 07:46:36 145.90 MHz
STRAND 1 29 Jul 07:47:23 07:52:05 35° 263° (W) 07:56:48 ?
JAS-1B 29 Jul 07:52:27 07:54:08 11° 333° (NNW) 07:55:47 435.800 - 435.900 CW/SSB
SO-67 29 Jul 07:54:38 07:57:48 31° 96° (E) 08:00:55 435.3500 MHz FM
KITSAT 1 29 Jul 08:08:18 08:16:17 58° 314° (NW) 08:24:18 435.175 FM
Sapphire 29 Jul 08:09:48 08:13:48 20° 33° (NNE) 08:17:47 437.095 MHz 1200 baud AX-25 AFSK
Saudisat 1A 29 Jul 08:21:40 08:26:04 69° 125° (SE) 08:30:29 436.775 MHz
PCSat 29 Jul 08:42:57 08:47:45 31° 41° (NE) 08:52:32 145.825 MHz
MaSat-1 29 Jul 08:49:10 08:50:16 11° 263° (W) 08:51:20 437.345 MHz
JAS-2 29 Jul 09:18:09 09:22:40 22° 305° (NW) 09:26:50 435.800 - 435.900 CW/SSB, 435.910 FM
AO-7 29 Jul 09:19:30 09:22:30 12° 329° (NNW) 09:25:30 29.400 - 29.500 MHz
SO-67 29 Jul 09:28:08 09:30:42 19° 294° (WNW) 09:33:14 435.3500 MHz FM
HO-68 29 Jul 09:43:57 09:50:36 40° 97° (E) 09:57:12 435.675 MHz FM
Sapphire 29 Jul 09:52:40 09:58:08 78° 55° (NE) 10:03:33 437.095 MHz 1200 baud AX-25 AFSK
UKube-1 29 Jul 09:54:38 09:58:25 28° 95° (E) 10:02:09 145.840 MHz, 145.915 MHz
Saudisat 1A 29 Jul 10:02:29 10:06:05 24° 325° (NW) 10:09:41 436.775 MHz
KITSAT 1 29 Jul 10:07:04 10:13:33 25° 340° (NNW) 10:20:02 435.175 FM
PCSat 29 Jul 10:26:11 10:31:31 58° 242° (WSW) 10:36:49 145.825 MHz
Oscar 11 29 Jul 10:39:06 10:43:16 43° 99° (E) 10:47:25 145.825 FM, Beacon 2401.500 USB
